sat.trackr.live / text

‹ back to catalog

STARLINK-35001

NORAD 65280 · 2025-184H

PAYLOAD ACTIVE UNKNOWN

§ Identity

Operator
Country
US
Launch date
2025-08-22
Launch site
AFWTR
Launch vehicle
Mass (kg)
RCS (m²)

Purposes: comms

External: N2YO · Heavens-Above · Gunter

§ Orbital elements

Epoch: 2026-09-20T14:15:17.930592Z

Period
93.91 min
Inclination
97.2863°
Eccentricity
0.0000532
Mean motion
15.33453714 rev/d
Perigee alt
465.2 km
Apogee alt
465.9 km
Semi-major
6,843.7 km
B*
3.3592e-4
RAAN
311.4866°
Arg perigee
150.4236°
Mean anomaly
209.7037°
Rev number
6,073

§ Raw data

STARLINK-350011 65280U 25184H   26263.59395753  .00010788  00000+0  33592-3 0  99942 65280  97.2863 311.4866 0000532 150.4236 209.7037 15.33453714 60738

JSON: /api/v1/satellites/65280 · /tle

For live sub-satellite position, see the globe view (requires WebGL).

§ Visibility from observer

Set your observer location to see the next 7 days of passes ≥ 10°. The values pass through the URL so the page stays shareable.

No JS? Fill the form by hand. The geolocation button needs JavaScript.